"Pseudo-MPEC" for P229uve

Created 2025 Apr 27 23:31:10 UT using Find_Orb

Click here for an explanation of pseudo-MPECs

 
 Astrometry: 
     P229uve* C2025 04 26.26925911 55 52.424-14 43 55.73   ~4Q9H 20.93wXNEOCPF52
     P229uve  C2025 04 26.28072611 55 46.979-14 44 08.80   ~4Q9H 20.88wXNEOCPF52
     P229uve  C2025 04 26.30375911 55 36.036-14 44 34.82   ~4Q9H 21.10wXNEOCPF52
     P229uve  C2025 04 26.41085111 54 44.900-14 46 33.86   ~4QH2 20.77GVNEOCPF51
     P229uve  C2025 04 26.41149111 54 44.605-14 46 34.69   ~4QH2 20.96GVNEOCPF51
     P229uve KC2025 04 26.43572311 54 34.198-14 46 26.76   ~4QBV 20.7 GWNEOCP474
     P229uve KC2025 04 26.44595711 54 29.402-14 46 38.10   ~4QBV 20.5 GWNEOCP474
     P229uve KC2025 04 26.45646211 54 24.367-14 46 50.02   ~4QBV 20.8 GWNEOCP474
     P229uve KC2025 04 26.86594511 51 11.67 -14 55 15.4    ~4QLV 20.8 GVNEOCPL01
     P229uve KC2025 04 26.87113911 51 09.07 -14 55 20.8    ~4QLV 21.2 GVNEOCPL01
     P229uve KC2025 04 26.87633411 51 06.57 -14 55 26.2    ~4QLV 20.9 GVNEOCPL01
     P229uve |C2025 04 27.06573711 49 36.480-14 58 20.10   ~4R8l 20.7 GVNEOCP807
     P229uve |C2025 04 27.06871011 49 35.010-14 58 23.30   ~4R8l 20.7 GVNEOCP807
     P229uve |C2025 04 27.07169211 49 33.540-14 58 26.70   ~4R8l 20.9 GVNEOCP807
     P229uve KC2025 04 27.16759511 48 47.509-15 00 48.89   ~4R4V 20.94GVNEOCPI52
     P229uve KC2025 04 27.17274011 48 45.133-15 00 53.89   ~4R4Vx22.50GVNEOCPI52

Station data:
(474) Mount John Observatory, Lake Tekapo  (S43.987385 E170.464960)  New
   Zealand.  Observers A. C. Gilmore, P. M. Kilmartin. Measurer P. M.
   Kilmartin. 1.0-m f/7.7 reflector + CCD.
(807) Cerro Tololo Observatory, La Serena  (S30.169133 W70.805900)  Chile.
   Observer R. Holmes. 0.61-m f/6.5 astrograph + CCD.
(F51) Pan-STARRS 1, Haleakala  (N20.707234 W156.255910)  US/Hawaii.
   Observers J. Bulger, T. Lowe, A. Schultz, M. Willman. Measurers K.
   Chambers, S. Chastel, T. de Boer, L. Denneau, J. Fairlamb, H. Flewelling,
   M. Huber, C.-C. Lin, E. Magnier, Y. Ramanjooloo, R. Wainscoat, R. Weryk.
   1.8-m Ritchey-Chrétien + CCD.
(F52) Pan-STARRS 2, Haleakala  (N20.707382 W156.255910)  US/Hawaii.
   Observers J. Bulger, T. Dukes, T. Lowe, A. Schultz, M. Willman. Measurers
   K. Chambers, S. Chastel, T. de Boer, L. Denneau, J. Fairlamb, H.
   Flewelling, M. Huber, C.-C. Lin, E. Magnier, Y. Ramanjooloo, R. Wainscoat,
   R. Weryk. 1.8-m Ritchey-Chrétien + CCD.
(I52) Steward Observatory, Mt. Lemmon Station  (N32.442570 W110.788920)
   US/Arizona.  Observers T. A. Pruyne, B. M. Africano, E. J. Christensen, G.
   A. Farneth, D. C. Fuls, A. R. Gibbs, A. D. Grauer, H. Gröller, J. A.
   Johnson, R. A. Kowalski, S. M. Larson, G. J. Leonard, D. Rankin, R. L.
   Seaman, F. C. Shelly, K. W. Wierzchoś. 1.0-m prime focus + CCD.
(L01) Višnjan Observatory, Tičan  (N45.290897 E13.749300)  Croatia.
   Observers K. Korlević, D. Pujagic, V. Dobos. Measurers D. Pujagic, K.
   Korlević. 1.0-m f/2.9 reflector + CCD.

Orbital elements:  P229uve
   Perihelion 2025 Jun 29.83511 +/- 0.265 TT = 20:02:33 (JD 2460856.33511)
Epoch 2025 Apr 27.0 TT = JDT 2460792.5   Earth MOID: 0.0635   Ve: 0.0121
M 341.83219769 +/- 0.56             Ma: 0.0088                   AutoNEOCP
n   0.28460516 +/- 0.00764          Peri.  292.32179 +/- 0.28
a   2.28897404 +/- 0.0387           Node    18.22424 +/- 0.09
e   0.7294555 +/- 0.00487           Incl.   14.16654 +/- 0.20
P   3.46307                H 22.31  G  0.15   U  9.5
q 0.61926931 +/- 0.00242    Q 3.95867876 +/- 0.0773       (J2000 ecliptic)
15 of 16 observations 2025 Apr. 26-27 (21.6 hr); mean residual 0".29
Residuals in arcseconds: 
250426 F52  .11-  .02-    250426 474  .67+  .04+    250427 807  .08-  .30+    
250426 F52  .12-  .04-    250426 474  .28+  .19-    250427 807  .05-  .27+    
250426 F52  .09+  .03+    250426 L01  .30+  .66-    250427 I52  .34+  .14-    
250426 F51  .01-  .11+    250426 L01  .75-  .24-    250427 I52( 2.9+  .69+)   
250426 F51  .15+  .02-    250426 L01  .34-  .17+    
250426 474  .51-  .03-    250427 807  .05-  .14+    

Ephemerides (geocentric):
Date (UTC) HH   RA             Dec           delta  r     elong  mag " sig PA
---- --------  ------------   ------------  ------ ------ -----  --- --------
2025 04 28 00  11 41 56.483   -15 15 57.50  .24878 1.2115 141.6 21.0 1.96  80
2025 04 28 01  11 41 35.491   -15 16 44.20  .24850 1.2110 141.4 21.0 2.11  80
2025 04 28 02  11 41 14.458   -15 17 30.89  .24822 1.2105 141.3 21.0 2.25  80
2025 04 28 03  11 40 53.381   -15 18 17.56  .24794 1.2100 141.2 21.0 2.40  80
2025 04 28 04  11 40 32.263   -15 19 04.23  .24766 1.2095 141.1 21.0 2.56  80
2025 04 28 05  11 40 11.102   -15 19 50.88  .24738 1.2090 141.0 21.0 2.72  80
2025 04 28 06  11 39 49.899   -15 20 37.52  .24710 1.2085 140.8 21.0 2.89  80
2025 04 28 07  11 39 28.653   -15 21 24.15  .24683 1.2080 140.7 21.0 3.06  80
2025 04 28 08  11 39 07.366   -15 22 10.77  .24655 1.2075 140.6 21.0 3.23  80
2025 04 28 09  11 38 46.035   -15 22 57.36  .24628 1.2070 140.5 21.0 3.41  80
2025 04 28 10  11 38 24.662   -15 23 43.95  .24600 1.2065 140.3 21.0 3.60  80
2025 04 28 11  11 38 03.247   -15 24 30.52  .24573 1.2060 140.2 21.0 3.79  80
2025 04 28 12  11 37 41.790   -15 25 17.07  .24545 1.2055 140.1 21.0 3.99  80
2025 04 28 13  11 37 20.289   -15 26 03.61  .24518 1.2050 140.0 21.0 4.19  80
2025 04 28 14  11 36 58.747   -15 26 50.12  .24491 1.2045 139.9 21.0 4.39  80
2025 04 28 15  11 36 37.161   -15 27 36.62  .24463 1.2040 139.7 21.0 4.61  80
2025 04 28 16  11 36 15.533   -15 28 23.10  .24436 1.2035 139.6 21.0 4.82  80
2025 04 28 17  11 35 53.863   -15 29 09.56  .24409 1.2030 139.5 21.0 5.05  80
2025 04 28 18  11 35 32.150   -15 29 56.00  .24382 1.2025 139.4 21.0 5.27  80
2025 04 28 19  11 35 10.394   -15 30 42.41  .24355 1.2020 139.3 21.0 5.51  80
2025 04 28 20  11 34 48.596   -15 31 28.81  .24329 1.2015 139.1 21.0 5.75  80
2025 04 28 21  11 34 26.755   -15 32 15.18  .24302 1.2010 139.0 21.0 5.99  80
2025 04 28 22  11 34 04.871   -15 33 01.53  .24275 1.2005 138.9 21.0 6.24  80
2025 04 28 23  11 33 42.944   -15 33 47.85  .24249 1.2000 138.8 21.0 6.50  80
2025 04 29 00  11 33 20.975   -15 34 34.15  .24222 1.1995 138.6 21.0 6.76  80
2025 04 29 01  11 32 58.963   -15 35 20.42  .24195 1.1990 138.5 21.0 7.02  80
2025 04 29 02  11 32 36.908   -15 36 06.67  .24169 1.1985 138.4 21.0 7.29  80
2025 04 29 03  11 32 14.811   -15 36 52.89  .24143 1.1980 138.3 21.0 7.57  80
2025 04 29 04  11 31 52.671   -15 37 39.08  .24116 1.1975 138.1 21.0 7.85  80
2025 04 29 05  11 31 30.487   -15 38 25.24  .24090 1.1970 138.0 21.0 8.14  81
2025 04 29 06  11 31 08.262   -15 39 11.38  .24064 1.1965 137.9 21.0 8.44  81
2025 04 29 07  11 30 45.993   -15 39 57.48  .24038 1.1960 137.8 21.0 8.74  81
2025 04 29 08  11 30 23.681   -15 40 43.55  .24012 1.1955 137.6 21.0 9.04  81
2025 04 29 09  11 30 01.327   -15 41 29.59  .23986 1.1950 137.5 21.0 9.35  81
2025 04 29 10  11 29 38.929   -15 42 15.59  .23960 1.1945 137.4 21.0 9.67  81
2025 04 29 11  11 29 16.489   -15 43 01.57  .23934 1.1940 137.3 21.0 10.0  81
2025 04 29 12  11 28 54.006   -15 43 47.50  .23908 1.1935 137.1 21.0 10.3  81
2025 04 29 13  11 28 31.480   -15 44 33.41  .23883 1.1930 137.0 21.0 10.7  81
2025 04 29 14  11 28 08.911   -15 45 19.28  .23857 1.1925 136.9 21.0 11.0  81
2025 04 29 15  11 27 46.300   -15 46 05.11  .23832 1.1920 136.8 21.0 11.3  81
2025 04 29 16  11 27 23.645   -15 46 50.90  .23806 1.1915 136.6 21.0 11.7  81
2025 04 29 17  11 27 00.947   -15 47 36.65  .23781 1.1910 136.5 21.0 12.1  81
2025 04 29 18  11 26 38.207   -15 48 22.37  .23755 1.1905 136.4 21.0 12.4  81
2025 04 29 19  11 26 15.423   -15 49 08.05  .23730 1.1900 136.3 21.0 12.8  81
2025 04 29 20  11 25 52.597   -15 49 53.68  .23705 1.1895 136.1 21.0 13.2  81
2025 04 29 21  11 25 29.728   -15 50 39.28  .23680 1.1890 136.0 21.0 13.6  81
2025 04 29 22  11 25 06.815   -15 51 24.83  .23655 1.1885 135.9 21.0 13.9  81
2025 04 29 23  11 24 43.860   -15 52 10.34  .23630 1.1880 135.8 21.0 14.3  81